sat.trackr.live / text

‹ back to catalog

STARLINK-34593

NORAD 64758 · 2025-147D

PAYLOAD ACTIVE UNKNOWN

§ Identity

Operator
Country
US
Launch date
2025-07-08
Launch site
AFETR
Launch vehicle
Mass (kg)
RCS (m²)

Purposes: comms

External: N2YO · Heavens-Above · Gunter

§ Orbital elements

Epoch: 2026-05-24T18:34:37.654752Z

Period
93.85 min
Inclination
53.1586°
Eccentricity
0.0001025
Mean motion
15.34413184 rev/d
Perigee alt
462.0 km
Apogee alt
463.4 km
Semi-major
6,840.8 km
B*
6.1878e-4
RAAN
248.4237°
Arg perigee
72.5172°
Mean anomaly
287.5943°
Rev number
5,041

§ Raw data

STARLINK-345931 64758U 25147D   26144.77404693  .00020597  00000+0  61878-3 0  99912 64758  53.1586 248.4237 0001025  72.5172 287.5943 15.34413184 50414

JSON: /api/v1/satellites/64758 · /tle

For live sub-satellite position, see the globe view (requires WebGL).

§ Visibility from observer

Set your observer location to see the next 7 days of passes ≥ 10°. The values pass through the URL so the page stays shareable.

No JS? Fill the form by hand. The geolocation button needs JavaScript.